Regional Weather Roundup
Issued by NWS

Home | Current Version | Previous Version | Text Only | Print | Product List | Glossary On
Versions: 1 2 3 4 5 6 7 8 9 10 11 12 13 14 15 16 17 18 19 20 21 22 23 24 25 26 27 28 29 30 31 32 33 34 35 36 37 38 39 40 41 42 43 44 45 46 47 48 49 50
000
ASUS43 KDTX 240310
RWRMI
MICHIGAN HOURLY REGIONAL WEATHER ROUNDUP
NATIONAL WEATHER SERVICE DETROIT/PONTIAC MI
ISSUED BY NATIONAL WEATHER SERVICE GRAND RAPIDS MI
1000 PM EST MON JAN 23 2017

NOTE: "FAIR" INDICATES FEW OR NO CLOUDS BELOW 12,000 FEET WITH NO
SIGNIFICANT WEATHER AND/OR OBSTRUCTION TO VISIBILITY.

MIZ047>049-052>055-059>063-066>070-074>076-081>083-240400-
SOUTHEAST LOWER MICHIGAN

CITY           SKY/WX    TMP DP  RH WIND       PRES   REMARKS
ADRIAN         CLOUDY    41  41 100 N5        29.71F FOG
ALMA           LGT RAIN  37  37  99 CALM      29.75S
ANN ARBOR      CLOUDY    41  41 100 N5        29.69F FOG
BAD AXE        CLOUDY    37  37 100 CALM      29.73F FOG
DETROIT CITY   CLOUDY    41  40  96 N6        29.70F FOG
DETROIT        FOG       41  41 100 N6        29.70F VSB 1/4
FLINT          FOG       38  38 100 E5        29.72F VSB 1/4 WCI  34
GROSSE ILE     FOG       41  40  99 N6        29.68F VSB 3/4
HILLSDALE      RAIN      37  37 100 NW5       29.70S WCI  34
HOWELL         DRIZZLE   39  38  97 CALM      29.70F

CITY           SKY/WX    TMP DP  RH WIND       PRES   REMARKS
JACKSON        LGT RAIN  39  38  96 NW3       29.71S
LANSING        LGT RAIN  38  36  92 NW5       29.74R FOG     WCI  34
MASON          RAIN      38  38 100 CALM      29.72S
MONROE         CLOUDY    42  42 100 N3        29.68F FOG
MT. CLEMENS    CLOUDY    39  39 100 NE6       29.68F FOG     WCI  35
PONTIAC        FOG       38  36  92 NE3       29.68F VSB 1/8
PORT HOPE        N/A     37  36  96 SE8       29.73F WCI  31
PORT HURON     CLOUDY    37  36  93 NE6       29.71F FOG     WCI  33
TRI CITIES     LGT RAIN  36  36 100 N5        29.74S FOG     WCI  32
YPSILANTI      CLOUDY    42  42 100 N7        29.70F FOG
$$
MIZ043>046-050>051-056>058-064>065-071>073-077>080-240400-
SOUTHWEST LOWER MICHIGAN

CITY           SKY/WX    TMP DP  RH WIND       PRES   REMARKS
BATTLE CREEK   LGT RAIN  40  40 100 N6        29.73S
BENTON HARBOR  FOG       38  37  97 NW6       29.78R VSB 3/4 WCI  33
BIG RAPIDS     LGT SNOW  38  37  98 CALM      29.75R
COLDWATER      LGT RAIN  40  40 100 N5        29.73R
HOLLAND        CLOUDY    38  36  92 W6        29.77R WCI  33
GRAND RAPIDS   LGT RAIN  40  38  93 N6        29.74S
KALAMAZOO      LGT RAIN  41  38  89 N9        29.74S
MARSHALL       LGT RAIN  39  38  97 CALM      29.73R
MOUNT PLEASANT LGT RAIN  37  36  99 NW3       29.75R
MUSKEGON       CLOUDY    40  37  89 N7        29.77S
STURGIS        RAIN      39  39 100 NW7       29.73R WCI  34
$$
MIZ016>042-240400-
NORTHERN LOWER MICHIGAN

CITY           SKY/WX    TMP DP  RH WIND       PRES   REMARKS
ALPENA         LGT RAIN  36  35  96 SE8       29.77S FOG     WCI  30
BEAVER ISLAND  CLOUDY    33  33 100 E5        29.78S FOG     WCI  28
BELLAIRE       LGT SNOW  34  34 100 CALM      29.77R VSB 3/4
CADILLAC       LGT RAIN  36  35  96 CALM      29.73F VSB 3/4
CHARLEVOIX     LGT RAIN  35  35 100 CALM      29.79S
GAYLORD        LGT RAIN  36  32  85 CALM      29.74R
HOUGHTON LAKE  LGT RAIN  35  34  96 CALM      29.75R
MANISTEE       CLOUDY    37  36  96 NW5       29.77S WCI  33
OSCODA         MIX PCPN  37  37  97 E6        29.75S WCI  33
PELLSTON       LGT RAIN  35  33  92 CALM      29.77S
TRAVERSE CITY  LGT RAIN  37  37 100 CALM      29.75S FOG
LUDINGTON      CLOUDY    37  37 100 N5        29.78R WCI  34
$$
MIZ007>008-015-240400-
EASTERN UPPER MICHIGAN

CITY           SKY/WX    TMP DP  RH WIND       PRES   REMARKS
KINROSS        LGT RAIN  33  33 100 E9        29.79S WCI  25
MACKINAC ISLAN MIX PCPN  33  33 100 E6        29.77F WCI  27
NEWBERRY       FOG       32  32  99 CALM      29.78S VSB 1
S. S. MARIE    RAIN      35  34  96 E3        29.79R FOG
$$
MIZ004>006-011>014-085-240400-
CENTRAL UPPER MICHIGAN

CITY           SKY/WX    TMP DP  RH WIND       PRES   REMARKS
MANISTIQUE     CLOUDY    33  32  97 CALM      29.79R FOG
ESCANABA       MIX PCPN  35  35 100 CALM      29.80R FOG
SAWYER-GWINN   FOG       32  32 100 CALM      29.77F VSB 3/4
$$
MIZ001>003-009>011-084-240400-
WESTERN UPPER MICHIGAN

CITY           SKY/WX    TMP DP  RH WIND       PRES   REMARKS
IRON MOUNTAIN  CLOUDY    35  32  88 NW3       29.77R
HOUGHTON       CLOUDY    34  32  92 NW3       29.78S FOG
COPPER HARBOR    N/A     35  35 100 CALM      29.79S
IRONWOOD       CLOUDY    34  34 100 CALM      29.79F FOG
$$

ABBREVIATIONS USED IN REMARKS
   TC - TEMPERATURE IN CELSIUS
  WCI - WIND CHILL INDEX
   HX - HEAT INDEX
  VSB - VISIBILITY





USA.gov is the U.S. government's official web portal to all federal, state and local government web resources and services.